Date,TemperatureHighF,TemperatureAvgF,TemperatureLowF,DewpointHighF,DewpointAvgF,DewpointLowF,HumidityHigh,HumidityAvg,HumidityLow,PressureMaxIn,PressureMinIn,WindSpeedMaxMPH,WindSpeedAvgMPH,GustSpeedMaxMPH,PrecipitationSumIn
2013-1-1,19.9,3.0,-11.9,15.7,-1.9,-16.9,85,79,74,30.06,29.85,8,4,17,0.00
2013-1-2,24.6,17.1,6.6,20.8,13.0,2.6,86,84,78,29.85,29.72,10,5,19,0.00
2013-1-3,19.0,8.8,0.0,12.8,3.0,-4.9,84,77,67,30.08,29.84,15,8,27,0.00
2013-1-4,28.4,19.0,11.3,16.7,12.0,7.2,85,74,61,29.95,29.80,10,6,20,0.00
2013-1-5,23.5,13.3,4.6,13.9,7.9,0.7,87,79,64,29.91,29.65,11,4,21,0.00
2013-1-6,18.0,11.0,5.0,12.6,6.8,-1.1,87,83,75,30.02,29.79,13,6,18,0.00
2013-1-7,38.5,26.0,12.7,25.8,19.1,8.8,84,75,60,29.86,29.65,20,8,30,0.02
2013-1-8,28.9,23.0,14.7,24.6,18.7,11.3,89,83,75,29.77,29.51,24,7,30,0.02
2013-1-9,35.1,29.5,23.2,28.4,22.0,17.7,85,74,61,30.13,29.61,18,8,32,0.09
2013-1-10,36.0,31.2,24.3,29.9,24.5,19.2,90,76,64,30.07,29.59,23,13,29,0.06
2013-1-11,34.9,33.7,32.4,34.6,33.0,29.8,100,97,90,29.59,29.17,20,11,27,0.01
2013-1-12,34.9,13.3,1.8,34.6,8.0,-4.3,99,79,66,29.86,29.17,9,1,18,0.02
2013-1-13,6.1,1.2,-3.3,-1.7,-5.1,-8.5,77,74,67,29.99,29.85,0,0,0,0.00
2013-1-14,15.6,3.3,-4.0,4.3,-2.8,-8.5,83,75,57,30.19,29.98,0,0,0,0.00
2013-1-15,27.9,10.4,1.4,18.0,4.4,-2.4,85,77,61,30.08,29.83,0,0,0,0.00
2013-1-16,34.9,24.7,9.3,29.3,18.5,3.8,88,77,61,29.96,29.46,14,8,24,0.00
2013-1-17,20.7,7.3,-3.8,10.9,-1.1,-10.0,77,68,53,30.18,29.97,11,5,14,0.00
2013-1-18,38.7,26.6,14.2,29.4,19.8,7.1,83,76,65,30.13,29.54,21,9,23,0.00
2013-1-19,38.5,20.0,1.4,30.2,12.7,-6.8,83,73,61,29.98,29.50,27,14,51,0.98
2013-1-20,7.3,0.6,-3.1,0.5,-6.9,-10.3,75,70,62,30.19,29.98,16,9,33,0.01
2013-1-21,-1.5,-8.8,-13.9,-9.0,-16.4,-21.4,74,68,59,30.14,30.06,15,8,25,0.01
2013-1-22,2.5,-6.6,-15.2,-7.1,-14.4,-20.8,76,68,55,30.16,30.04,6,3,11,0.00
2013-1-23,11.5,4.8,-5.3,3.5,-3.1,-15.7,82,69,50,30.28,29.93,22,8,40,0.01
2013-1-24,10.0,-2.8,-10.1,-1.7,-12.3,-19.0,66,63,55,30.41,29.96,23,11,32,0.01
2013-1-25,18.1,10.3,0.7,12.9,1.8,-5.9,80,68,55,30.05,29.74,24,11,42,0.14
2013-1-26,21.9,5.2,-5.8,11.5,-2.0,-11.1,77,71,61,30.10,29.88,22,9,28,0.14
2013-1-27,31.5,26.0,19.2,28.2,19.3,10.0,89,76,62,29.89,29.60,19,13,25,0.00
2013-1-28,33.4,31.1,29.7,29.6,22.3,12.7,87,70,42,29.67,29.55,13,3,18,0.02
2013-1-29,34.7,30.9,26.2,29.2,26.1,16.5,92,83,55,29.56,29.35,18,1,23,0.02
2013-1-30,26.2,15.8,6.3,20.3,9.4,0.3,79,75,69,29.59,29.52,18,10,31,0.01
2013-1-31,5.9,-4.4,-10.5,0.1,-11.1,-17.1,77,72,66,30.04,29.57,17,12,36,0.54
2013-2-1,3.7,-7.2,-16.4,-1.5,-14.9,-22.5,78,68,51,30.08,29.82,14,7,21,0.54
2013-2-2,10.0,2.6,-6.3,3.3,-3.8,-11.2,81,74,58,29.96,29.75,12,5,15,0.00
2013-2-3,14.9,8.5,2.3,6.1,2.6,-3.1,83,76,63,29.88,29.74,13,5,27,0.00
2013-2-4,16.3,8.7,1.8,5.6,1.7,-3.4,83,73,49,29.85,29.64,11,4,17,0.00
2013-2-5,31.1,20.0,7.2,26.5,14.6,1.8,89,79,68,29.86,29.45,14,8,25,0.00
2013-2-6,28.0,14.6,3.4,20.5,8.9,-1.6,81,78,72,29.87,29.66,19,7,25,0.00
2013-2-7,27.0,22.3,16.3,21.3,17.5,11.9,85,81,75,30.02,29.71,11,8,23,0.02
2013-2-8,25.0,19.9,10.4,18.9,13.9,5.5,82,77,72,30.13,29.98,22,8,27,0.02
2013-2-9,31.5,26.3,23.5,27.5,22.0,18.5,86,84,80,29.98,29.68,26,18,34,0.02
2013-2-10,31.3,29.0,27.0,29.6,23.4,10.3,94,81,45,29.70,29.11,21,11,29,0.04
2013-2-11,26.8,24.1,21.0,24.8,19.9,15.5,92,84,76,29.68,29.14,0,0,0,0.04
2013-2-12,33.1,20.2,8.6,22.2,13.6,4.0,82,76,61,29.84,29.64,8,5,15,0.00
2013-2-13,37.8,25.3,14.4,29.4,19.1,9.6,90,77,63,29.65,29.38,7,4,11,0.01
2013-2-14,32.7,24.5,8.2,30.2,17.6,1.9,93,76,54,29.97,29.37,15,8,21,0.01
2013-2-15,16.0,5.7,-2.9,6.1,-1.4,-8.1,80,72,60,30.12,29.98,9,6,13,0.00
2013-2-16,12.9,8.4,0.0,5.8,2.6,-4.7,81,77,69,30.09,29.88,11,4,13,0.00
2013-2-17,31.8,20.5,6.3,25.4,15.0,1.4,84,79,75,29.88,29.43,25,16,31,0.00
2013-2-18,33.1,21.5,1.6,29.1,16.0,-3.6,86,79,71,29.63,29.31,22,13,41,2.37
2013-2-19,1.4,-3.7,-9.0,-3.7,-10.1,-15.7,78,73,67,30.10,29.63,20,13,36,0.78
2013-2-20,11.5,-4.2,-18.0,-0.3,-12.4,-24.1,73,67,53,30.23,30.11,12,5,19,0.78
2013-2-21,18.1,9.4,1.9,7.9,0.8,-4.8,74,67,62,30.19,29.95,10,6,18,0.00
2013-2-22,29.5,21.2,17.1,21.1,15.1,7.7,84,77,66,29.95,29.68,12,7,20,0.00
2013-2-23,26.2,15.9,7.0,16.7,11.1,3.0,87,81,60,29.70,29.65,7,4,16,0.00
2013-2-24,30.4,13.1,-0.9,18.5,6.0,-5.5,85,74,52,29.88,29.69,4,1,6,0.00
2013-2-25,29.3,20.7,14.2,21.8,15.7,9.7,87,81,71,29.90,29.85,4,1,8,0.00
2013-2-26,31.3,20.8,12.9,27.1,17.1,9.6,90,85,76,29.86,29.71,10,3,19,0.00
2013-2-27,38.1,24.8,19.2,24.3,17.7,12.9,83,74,57,29.81,29.70,14,9,24,0.00
2013-2-28,29.8,24.6,15.3,21.1,17.7,10.5,82,75,65,30.01,29.81,9,5,15,0.00
2013-3-1,28.2,21.5,15.8,18.4,14.0,9.3,79,72,60,30.14,30.00,8,5,14,0.00
2013-3-2,24.8,14.4,4.3,14.1,7.7,-0.7,82,74,63,30.14,29.98,9,4,11,0.00
2013-3-3,29.3,22.5,14.7,19.7,14.3,8.3,80,71,55,29.98,29.73,22,12,27,0.00
2013-3-4,25.5,23.4,22.1,20.4,18.6,12.5,90,82,58,29.78,29.67,26,18,33,0.04
2013-3-5,31.6,24.8,21.7,24.3,20.8,16.9,91,85,69,30.05,29.73,13,8,21,0.02
2013-3-6,27.9,19.5,8.6,17.9,13.6,5.0,86,78,61,30.21,30.05,7,4,14,0.02
2013-3-7,26.4,15.8,2.5,18.1,10.5,-1.6,87,79,68,30.14,30.01,18,7,24,0.00
2013-3-8,35.1,21.7,12.4,28.0,16.8,9.2,89,81,73,30.06,29.89,14,9,18,0.00
2013-3-9,35.4,33.3,28.8,33.3,30.9,24.0,95,91,77,29.89,29.49,16,10,21,0.14
2013-3-10,33.6,29.7,26.2,33.1,24.7,19.4,100,82,73,29.81,29.55,17,12,32,0.06
2013-3-11,28.0,23.9,19.4,19.9,17.3,13.2,81,75,67,29.76,29.59,12,8,22,0.00
2013-3-12,26.1,22.2,17.1,21.5,15.3,11.6,83,74,64,29.99,29.64,18,10,34,0.35
2013-3-13,16.9,13.1,10.2,11.3,8.5,6.5,85,81,78,30.07,29.99,11,6,17,0.00
2013-3-14,41.2,31.2,20.7,28.0,23.4,15.8,89,73,55,30.01,29.83,17,5,21,0.00
2013-3-15,34.5,30.3,25.2,29.6,26.8,22.1,91,87,81,29.83,29.61,11,6,17,0.01
2013-3-16,25.2,18.5,6.6,22.7,12.5,-0.1,90,77,63,30.02,29.69,10,8,19,0.00
2013-3-17,25.3,12.2,1.2,18.6,4.4,-5.3,75,70,62,30.05,29.64,25,13,34,0.00
2013-3-18,30.2,22.8,9.7,28.9,19.0,5.4,96,85,74,29.66,29.39,31,19,40,4.64
2013-3-19,17.2,8.9,1.4,5.2,-0.0,-4.8,83,67,50,30.03,29.67,16,11,35,0.30
2013-3-20,16.5,8.3,0.1,4.8,-0.4,-5.5,78,67,54,30.07,29.93,17,10,28,0.15
2013-3-21,7.5,5.0,1.8,-0.1,-2.3,-5.6,72,71,69,29.95,29.91,7,5,14,0.00
2013-3-22,32.7,21.0,3.0,16.0,10.7,-1.0,85,65,46,29.89,29.84,5,3,8,0.00
2013-3-23,32.0,21.5,8.1,20.2,13.8,4.1,85,72,57,29.96,29.87,9,5,17,0.00
2013-3-24,36.0,26.3,19.0,26.5,19.8,15.6,88,77,56,29.93,29.80,11,7,22,0.00
2013-3-25,35.8,28.3,22.5,23.2,19.6,15.6,88,70,52,30.05,29.86,14,9,24,0.00
2013-3-26,33.8,21.5,10.0,22.8,14.6,5.9,85,75,63,30.11,30.05,9,5,17,0.00
2013-3-27,38.7,26.8,10.6,24.6,18.8,7.0,90,73,55,30.13,30.08,8,3,11,0.00
2013-3-28,39.7,31.5,23.4,29.2,23.4,17.8,81,72,63,30.11,30.03,14,8,18,0.00
2013-3-29,45.5,36.9,29.5,38.0,31.4,26.4,89,80,72,30.05,29.85,12,9,16,0.00
2013-3-30,41.4,38.3,32.2,37.3,34.2,29.9,92,85,77,29.85,29.69,16,7,21,0.02
2013-3-31,35.1,31.4,21.9,32.0,23.8,12.4,100,75,46,29.91,29.63,19,12,36,0.13
2013-4-1,31.3,22.8,14.9,17.8,12.8,8.4,77,65,53,30.08,29.92,17,9,30,0.00
2013-4-2,36.3,26.9,18.5,18.2,15.7,12.3,86,64,39,30.14,30.05,7,4,15,0.00
2013-4-3,48.0,33.9,22.8,37.7,24.4,13.8,80,68,58,30.15,29.83,23,11,34,0.06
2013-4-4,46.2,39.7,32.0,32.8,29.1,23.0,86,66,47,29.98,29.80,16,9,28,0.01
2013-4-5,34.5,31.6,25.5,30.7,25.7,19.4,92,79,61,30.02,29.68,24,12,35,0.02
2013-4-6,53.6,41.0,34.2,43.3,34.3,29.4,86,77,68,29.68,29.33,24,13,36,0.02
2013-4-7,44.2,37.4,32.2,39.7,32.3,28.1,92,82,70,29.73,29.57,14,6,20,0.13
2013-4-8,43.9,41.2,37.2,42.5,39.1,34.8,100,92,82,29.81,29.48,14,7,21,0.01
2013-4-9,39.4,33.7,27.3,34.4,27.2,23.3,90,77,64,29.91,29.80,18,12,33,0.22
2013-4-10,35.6,32.6,30.2,30.0,26.8,21.3,94,79,61,29.99,29.70,17,9,25,0.02
2013-4-11,35.6,31.1,27.0,33.2,28.0,25.7,96,88,78,29.74,29.49,16,11,28,0.09
2013-4-12,37.8,30.5,25.7,30.8,26.7,24.5,96,86,65,29.66,29.51,12,7,23,0.04
2013-4-13,40.5,31.0,26.8,27.6,24.9,22.3,93,79,56,29.73,29.65,9,5,20,0.00
2013-4-14,32.9,30.7,27.3,32.2,26.7,22.3,97,85,76,29.73,29.25,19,6,35,0.52
2013-4-15,39.4,35.4,30.7,33.7,28.7,25.2,100,77,68,29.76,29.27,20,11,32,0.11
2013-4-16,43.7,35.4,28.9,29.5,26.6,23.9,84,71,54,30.11,29.76,14,7,22,0.00
2013-4-17,38.8,34.7,32.4,32.5,28.4,26.3,97,78,69,30.11,29.76,12,7,23,0.04
2013-4-18,32.9,31.5,29.8,32.5,30.2,27.2,100,95,86,29.79,29.44,18,12,33,0.11
2013-4-19,37.6,31.8,27.1,29.9,25.2,18.9,100,78,57,29.79,29.41,19,14,32,0.14
2013-4-20,39.4,29.7,19.0,22.9,19.5,15.6,86,67,46,30.06,29.79,12,6,17,0.00
2013-4-21,48.4,38.0,29.7,44.4,34.3,20.7,100,86,62,30.08,29.80,28,14,36,0.22
2013-4-22,39.4,34.3,29.5,33.7,29.2,26.2,100,82,65,30.04,29.93,17,9,30,0.02
2013-4-23,38.5,30.7,21.2,29.6,22.4,16.0,100,72,52,30.02,29.89,14,9,25,0.00
2013-4-24,48.9,35.8,26.8,35.1,27.8,22.8,93,74,44,29.92,29.73,17,7,30,0.07
2013-4-25,32.9,30.8,28.8,30.8,26.5,24.0,92,84,79,29.88,29.81,15,9,31,0.01
2013-4-26,70.7,55.4,41.2,44.2,37.4,29.4,81,54,23,29.93,29.72,23,9,30,0.00
2013-4-27,77.0,66.5,41.4,39.8,30.6,23.5,70,29,14,29.95,29.69,10,4,21,0.00
2013-4-28,81.5,63.9,50.0,49.6,45.5,33.6,82,55,27,29.69,29.47,20,10,34,0.05
2013-4-29,75.0,59.2,41.7,48.4,39.4,31.8,76,52,22,29.66,29.36,16,7,24,0.00
2013-4-30,67.3,62.0,54.5,57.6,43.6,26.5,81,54,23,29.72,29.17,18,12,33,0.02
2013-5-1,54.3,41.4,32.5,35.3,27.5,22.6,91,58,46,30.28,29.73,17,10,30,0.01
2013-5-2,48.4,39.6,32.7,27.8,23.6,20.2,73,54,36,30.38,30.23,20,12,35,0.14
2013-5-3,44.1,36.0,28.2,32.6,24.4,20.9,82,63,44,30.26,29.96,15,8,26,0.05
2013-5-4,41.4,36.4,32.5,38.1,33.6,30.2,94,89,79,30.00,29.92,13,8,27,0.13
2013-5-5,59.5,46.6,38.8,47.8,41.0,35.6,95,82,64,29.99,29.91,9,5,16,0.00
2013-5-6,73.8,57.5,40.6,50.9,45.9,39.1,95,68,43,29.93,29.83,7,4,14,0.00
2013-5-7,79.0,65.2,48.6,51.5,45.6,38.0,91,54,24,29.88,29.75,11,4,28,0.00
2013-5-8,66.7,60.2,55.4,57.2,51.0,40.5,88,73,39,29.83,29.77,10,4,17,0.11
2013-5-9,57.7,54.3,44.2,53.6,49.9,35.8,93,85,72,29.92,29.77,15,9,26,0.11
2013-5-10,69.3,51.7,35.6,35.3,27.7,14.1,76,46,14,29.94,29.71,10,6,17,0.00
2013-5-11,58.1,47.4,39.9,46.8,26.5,15.6,70,47,24,29.99,29.71,24,15,47,1.03
2013-5-12,60.1,46.8,31.1,26.8,19.2,12.1,68,37,17,30.05,29.90,11,6,24,0.00
2013-5-13,85.5,60.3,40.5,49.3,31.7,19.3,45,34,26,29.92,29.46,24,10,40,0.28
2013-5-14,95.7,76.3,55.9,48.5,41.2,21.8,57,33,10,29.51,29.32,30,10,40,0.17
2013-5-15,80.1,68.0,50.5,49.5,45.6,40.0,67,46,30,29.75,29.50,17,8,33,0.01
2013-5-16,84.4,70.5,52.2,47.0,41.8,34.4,74,40,17,29.73,29.63,15,6,22,0.00
2013-5-17,73.6,61.4,56.5,57.0,49.1,35.5,95,69,28,29.77,29.67,21,13,30,0.05
2013-5-18,79.5,66.5,56.3,69.7,61.7,54.9,100,86,63,29.75,29.58,24,14,32,0.48
2013-5-19,79.3,69.1,63.9,68.0,63.9,61.4,100,84,65,29.60,29.40,22,10,28,0.48
2013-5-20,70.5,64.3,59.4,63.2,58.9,53.8,100,84,59,29.41,29.31,18,9,27,0.09
2013-5-21,60.3,55.3,48.0,58.7,53.8,46.4,100,94,84,29.53,29.31,10,6,19,0.09
2013-5-22,52.2,47.6,44.1,48.1,45.4,42.4,100,92,79,29.79,29.53,14,8,29,0.30
2013-5-23,65.5,53.8,43.7,45.5,38.1,30.7,85,59,29,30.10,29.80,11,6,23,0.01
2013-5-24,68.7,55.6,42.3,51.1,38.4,32.1,81,54,30,30.15,29.96,22,11,35,0.05
2013-5-25,57.9,54.8,53.2,51.0,48.8,45.9,86,80,74,30.02,29.95,28,18,38,0.01
2013-5-26,55.6,52.0,49.6,49.4,45.9,42.5,89,80,69,30.00,29.88,26,16,40,0.08
2013-5-27,62.6,56.0,52.2,54.0,52.0,48.8,100,87,72,29.87,29.63,17,10,25,0.01
2013-5-28,65.1,57.7,53.2,56.2,54.1,52.3,100,88,72,29.66,29.52,12,4,20,0.00
2013-5-29,77.2,60.8,52.2,66.8,57.8,51.9,100,91,69,29.62,29.41,23,9,31,0.01
2013-5-30,74.8,68.9,63.5,64.6,62.0,59.3,94,79,62,29.45,29.30,28,16,39,0.09
2013-5-31,70.3,67.2,61.7,61.8,53.6,48.3,89,63,46,29.36,29.28,17,8,29,0.05
2013-6-1,72.7,60.4,53.2,57.4,51.5,43.1,92,73,56,29.76,29.35,16,6,31,0.06
2013-6-2,69.6,58.3,48.6,46.3,41.1,37.4,85,56,32,29.91,29.76,9,5,23,0.00
2013-6-3,69.3,61.2,47.5,44.5,40.8,38.6,72,48,34,29.87,29.72,20,7,32,0.00
2013-6-4,63.7,59.2,55.4,55.8,51.1,43.6,94,76,48,29.83,29.73,23,14,31,0.22
2013-6-5,68.5,59.7,54.1,55.9,52.7,49.6,100,79,51,29.84,29.75,20,6,27,0.00
2013-6-6,60.1,54.8,49.6,52.6,49.9,48.3,95,84,68,29.87,29.80,6,3,17,0.00
2013-6-7,66.9,58.2,52.2,51.3,49.7,48.1,92,75,52,29.87,29.74,6,2,9,0.00
2013-6-8,68.4,60.8,55.0,55.8,51.7,48.8,85,73,51,29.74,29.67,18,8,24,0.04
2013-6-9,64.6,60.0,56.8,59.3,56.3,51.9,97,88,72,29.68,29.55,20,10,33,0.66
2013-6-10,76.8,65.0,57.9,61.3,58.9,56.5,100,83,57,29.70,29.63,8,3,14,0.00
2013-6-11,83.7,68.3,59.2,67.3,61.9,56.5,100,82,54,29.75,29.61,13,3,20,0.02
2013-6-12,72.1,65.7,57.2,59.9,57.0,53.1,94,74,57,29.76,29.62,13,5,27,0.57
2013-6-13,64.9,61.4,57.7,57.9,53.0,49.9,78,74,71,29.85,29.76,9,5,15,0.00
2013-6-14,79.7,70.2,61.7,62.7,58.1,53.7,77,66,54,29.88,29.66,30,14,36,0.26
2013-6-15,84.7,73.8,63.9,66.0,60.0,44.4,100,67,25,29.73,29.67,11,5,14,0.00
2013-6-16,87.4,74.1,58.3,57.0,49.2,41.1,73,45,21,29.76,29.68,13,5,22,0.00
2013-6-17,81.0,72.7,61.5,56.2,54.1,51.8,75,54,38,29.79,29.70,11,5,19,0.00
2013-6-18,77.7,68.8,54.3,59.6,55.2,48.1,92,63,45,29.91,29.80,9,4,16,0.15
2013-6-19,87.6,74.0,61.7,63.4,58.2,53.0,87,61,31,29.85,29.72,14,8,25,0.00
2013-6-20,89.4,79.4,70.3,66.6,63.7,60.1,78,60,43,29.80,29.66,21,12,31,0.02
2013-6-21,83.1,72.7,63.0,69.7,64.7,60.5,99,77,56,29.81,29.56,22,8,44,1.03
2013-6-22,82.8,71.1,63.9,70.0,64.8,60.4,94,81,62,29.82,29.60,32,8,45,0.54
2013-6-23,83.3,74.5,65.8,71.2,66.4,62.8,100,78,51,29.68,29.46,16,6,31,1.22
2013-6-24,79.0,72.6,62.6,71.8,65.4,59.8,93,78,63,29.73,29.60,17,5,25,0.00
2013-6-25,85.6,75.2,65.7,74.3,68.9,63.2,97,82,66,29.64,29.52,16,8,23,0.00
2013-6-26,86.5,78.8,70.5,72.9,68.7,62.7,100,74,45,29.65,29.49,12,5,27,0.01
2013-6-27,86.0,77.5,67.1,67.4,61.7,54.3,90,61,34,29.70,29.64,14,6,31,0.02
2013-6-28,79.3,72.9,64.0,61.8,58.3,55.9,81,61,49,29.69,29.64,20,10,39,0.45
2013-6-29,79.9,71.2,63.3,61.6,57.1,50.3,89,64,38,29.78,29.62,11,6,27,0.02
2013-6-30,84.4,70.9,58.1,56.1,52.9,49.7,82,56,33,29.94,29.79,6,3,17,0.00
2013-7-1,88.7,76.4,62.8,60.9,55.2,48.4,74,51,27,30.01,29.94,5,2,14,0.00
2013-7-2,88.5,76.2,62.4,58.9,55.5,51.9,78,51,31,29.99,29.87,3,1,11,0.00
2013-7-3,85.1,75.9,63.9,59.5,54.2,48.7,71,49,30,29.89,29.76,12,3,18,0.00
2013-7-4,89.4,76.9,61.3,62.1,56.2,52.4,82,52,29,29.77,29.65,13,6,24,0.00
2013-7-5,90.1,78.5,68.5,65.6,60.4,56.3,71,55,37,29.68,29.58,16,9,29,0.02
2013-7-6,86.9,77.8,71.1,72.3,64.6,60.0,84,64,54,29.69,29.59,16,6,23,0.00
2013-7-7,92.3,81.8,71.8,74.4,69.4,66.4,83,67,51,29.72,29.62,6,3,14,0.00
2013-7-8,92.7,76.9,67.5,72.4,67.9,64.8,94,76,41,29.83,29.72,7,2,11,0.00
2013-7-9,84.4,76.9,66.6,70.7,68.7,66.2,100,77,58,29.77,29.56,12,6,26,0.40
2013-7-10,82.8,71.4,59.9,65.8,58.5,56.0,89,66,40,29.91,29.76,9,5,20,0.00
2013-7-11,70.7,65.9,61.0,60.4,57.6,55.7,87,75,66,29.89,29.86,2,1,4,0.00
2013-7-12,88.3,77.7,66.7,68.0,62.2,57.9,75,60,47,29.78,29.67,24,13,31,0.22
2013-7-13,79.3,72.8,68.4,70.1,65.6,63.1,88,79,58,29.81,29.69,22,10,29,0.11
2013-7-14,84.2,73.0,66.4,70.4,65.0,60.2,92,77,57,29.97,29.81,13,7,20,0.06
2013-7-15,87.1,77.6,66.6,70.5,66.8,63.4,90,71,49,30.04,29.96,12,5,20,0.00
2013-7-16,93.2,82.3,71.2,72.9,69.2,65.3,91,67,42,30.02,29.96,7,5,20,0.00
2013-7-17,95.2,83.6,71.1,73.9,69.1,65.7,83,63,44,30.06,29.93,7,3,17,0.00
2013-7-18,94.8,84.4,73.4,72.1,70.1,67.3,86,64,42,29.94,29.60,10,6,25,0.01
2013-7-19,83.1,78.7,72.7,70.4,65.0,59.8,87,64,47,29.73,29.58,10,5,22,0.01
2013-7-20,84.9,72.1,62.6,65.2,62.1,59.7,92,72,50,29.79,29.71,6,2,14,0.00
2013-7-21,79.3,68.3,62.1,69.2,61.8,57.0,100,80,63,29.77,29.61,12,3,19,0.25
2013-7-22,83.1,74.1,66.9,71.1,65.8,55.6,100,78,53,29.67,29.51,13,7,26,0.00
2013-7-23,81.5,68.2,56.5,58.5,54.9,51.6,90,65,38,29.83,29.67,5,3,14,0.00
2013-7-24,82.2,70.6,61.3,60.8,56.3,53.0,86,63,40,29.88,29.79,7,2,16,0.00
2013-7-25,81.3,71.8,62.8,68.1,62.0,55.7,93,72,52,29.81,29.74,10,3,21,0.05
2013-7-26,69.3,63.6,55.9,63.6,54.0,0.9,90,72,10,29.92,29.76,20,6,109,0.02
2013-7-27,70.2,58.5,46.0,48.7,45.8,42.7,89,65,42,29.93,29.77,14,6,25,0.00
2013-7-28,76.8,61.5,46.8,54.4,48.4,43.4,88,64,43,29.86,29.81,11,4,17,0.00
2013-7-29,77.0,64.9,53.2,59.5,53.8,50.1,90,69,45,29.93,29.86,16,4,20,0.07
2013-7-30,73.4,66.3,61.9,64.9,62.3,59.1,100,87,71,29.91,29.84,8,1,14,0.08
2013-7-31,78.4,67.5,59.4,65.8,60.9,54.1,100,82,48,29.91,29.83,10,3,24,0.08
2013-8-1,85.1,70.7,54.3,61.3,55.7,49.5,86,61,42,29.88,29.70,5,2,12,0.00
2013-8-2,79.7,70.3,59.0,58.8,54.8,50.3,83,60,39,29.86,29.70,6,3,14,0.00
2013-8-3,80.4,67.9,53.8,58.1,52.0,48.8,84,59,35,29.99,29.86,8,3,17,0.00
2013-8-4,74.7,63.6,53.6,58.6,53.8,48.7,85,71,52,30.06,29.83,8,3,14,0.00
2013-8-5,81.0,71.7,61.2,67.6,62.5,57.2,99,74,58,29.85,29.64,9,5,17,1.54
2013-8-6,87.6,69.4,55.2,68.9,62.2,55.0,100,80,53,29.69,29.53,14,3,28,0.09
2013-8-7,79.5,67.7,58.5,61.9,56.3,50.7,100,71,38,29.84,29.59,7,3,15,0.01
2013-8-8,75.9,64.5,56.5,62.0,56.5,51.0,94,76,60,29.88,29.80,4,2,13,0.12
2013-8-9,75.2,65.4,54.9,62.1,55.9,50.4,100,75,44,29.94,29.82,10,4,23,0.01
2013-8-10,79.7,67.5,55.6,60.6,55.9,53.1,97,69,44,30.01,29.89,3,1,8,0.00
2013-8-11,84.4,71.5,62.2,65.4,62.0,57.6,97,74,49,29.91,29.82,4,2,8,0.00
2013-8-12,79.7,69.8,57.4,61.8,57.1,52.9,86,66,42,29.89,29.84,9,3,19,0.00
2013-8-13,79.7,68.5,53.2,59.4,53.4,49.9,100,62,38,30.02,29.88,4,2,10,0.00
2013-8-14,78.4,63.6,52.5,56.2,51.2,48.7,91,66,36,30.02,29.91,5,2,8,0.00
2013-8-15,79.7,66.7,54.5,60.5,56.1,51.3,100,71,44,29.95,29.89,4,2,9,0.00
2013-8-16,79.5,67.5,54.5,60.8,56.5,53.2,100,70,44,30.01,29.93,9,3,17,0.00
2013-8-17,81.7,68.6,55.2,60.8,56.9,52.3,91,68,47,29.99,29.90,11,5,21,0.00
2013-8-18,81.5,69.3,45.5,61.4,57.0,-7.9,88,67,10,29.93,29.80,127,7,127,0.00
2013-8-19,87.3,75.0,60.4,72.1,65.1,53.6,86,72,58,29.84,29.69,12,5,35,0.00
2013-8-20,76.6,74.6,71.6,70.1,69.2,68.4,90,83,79,29.71,29.70,7,6,13,0.00
2013-8-21,94.3,82.5,68.9,77.7,72.5,63.9,100,73,54,29.82,29.64,6,3,13,0.00
2013-8-22,90.3,75.9,65.5,64.1,56.5,50.8,74,53,26,29.95,29.82,5,2,15,0.00
2013-8-23,83.3,70.4,58.8,70.8,60.5,51.3,87,71,63,29.95,29.83,14,5,21,0.00
2013-8-24,86.9,77.9,70.2,73.6,70.4,67.8,94,79,61,29.84,29.71,20,12,37,0.18
2013-8-25,93.9,83.9,76.1,77.1,73.5,70.4,83,72,56,29.81,29.73,10,6,22,0.00
2013-8-26,93.2,83.4,72.7,78.5,74.9,71.2,100,77,60,29.79,29.64,12,5,23,0.00
2013-8-27,96.8,84.4,73.6,81.2,75.9,71.0,100,77,59,29.73,29.61,5,2,12,0.00
2013-8-28,87.6,79.1,69.4,76.4,73.0,69.2,100,82,64,29.84,29.73,13,3,18,0.00
2013-8-29,91.8,82.0,75.0,77.1,73.5,69.2,100,78,55,29.81,29.67,8,5,18,0.00
2013-8-30,86.0,77.3,69.1,72.7,68.8,65.6,100,77,55,29.77,29.67,10,3,101,0.00
2013-8-31,87.6,72.9,59.7,70.3,65.9,59.5,100,81,51,29.72,29.56,14,4,32,0.12
2013-9-1,70.7,66.5,59.0,66.2,60.5,55.7,94,81,70,29.81,29.59,11,6,24,0.01
2013-9-2,71.4,59.4,48.6,55.6,52.0,47.6,97,78,53,29.93,29.81,6,3,14,0.00
2013-9-3,81.3,63.4,47.5,66.1,55.4,47.2,99,78,47,29.90,29.81,7,2,12,0.01
2013-9-4,90.7,74.0,59.4,70.4,64.4,58.6,100,74,48,29.94,29.83,4,1,9,0.00
2013-9-5,85.6,72.3,61.7,69.7,63.1,56.3,85,74,56,30.01,29.90,12,5,21,0.00
2013-9-6,93.2,79.1,68.0,71.3,68.0,65.1,93,71,47,29.91,29.67,12,6,24,0.00
2013-9-7,95.9,80.8,68.7,72.6,69.6,67.1,100,71,40,29.80,29.68,5,2,17,0.00
2013-9-8,77.5,68.8,62.8,69.1,63.2,58.8,90,82,73,29.85,29.70,17,4,24,0.00
2013-9-9,94.6,76.4,66.6,74.4,69.3,60.6,100,81,47,29.70,29.45,12,7,23,0.00
2013-9-10,84.4,73.0,66.2,68.3,64.5,59.3,100,77,45,29.79,29.59,9,4,21,0.00
2013-9-11,84.7,72.0,61.2,63.0,57.7,50.1,91,65,32,29.91,29.79,9,4,21,0.00
2013-9-12,76.6,66.5,53.4,55.5,49.6,45.5,83,56,35,30.05,29.91,9,5,26,0.00
2013-9-13,58.1,53.7,48.7,47.6,45.5,44.4,86,74,66,30.06,30.04,2,1,4,0.00
2013-9-14,69.4,56.7,48.4,57.2,49.5,43.5,100,78,52,29.89,29.68,11,5,13,0.00
2013-9-15,68.7,58.1,51.6,56.9,54.1,49.4,99,87,59,30.09,29.68,11,4,15,0.00
2013-9-16,66.2,53.7,41.9,50.6,46.7,41.6,100,79,52,30.20,30.03,12,5,21,0.00
2013-9-17,61.3,54.8,48.0,57.6,51.9,47.1,100,90,78,30.03,29.73,19,11,28,0.00
2013-9-18,82.9,68.6,57.7,72.0,65.4,57.5,99,91,67,29.74,29.47,16,10,26,0.00
2013-9-19,74.5,69.7,62.6,70.4,65.3,52.7,100,86,65,29.64,29.43,25,5,48,1.57
2013-9-20,62.6,57.1,52.2,54.7,50.7,46.2,100,79,64,29.77,29.65,12,7,26,0.24
2013-9-21,71.8,55.0,42.3,50.3,45.5,42.0,100,74,42,29.83,29.71,5,2,13,0.00
2013-9-22,80.6,61.1,46.6,57.4,50.5,44.4,94,71,43,29.75,29.59,20,12,46,0.01
2013-9-23,76.1,64.7,53.2,55.3,52.4,49.5,87,66,42,29.70,29.62,23,14,34,0.05
2013-9-24,73.6,60.5,49.3,56.8,51.8,12.2,97,75,10,29.77,29.68,13,4,21,0.00
2013-9-25,76.1,62.7,50.2,55.6,52.8,49.7,100,73,43,29.77,29.63,18,7,26,0.00
2013-9-26,83.5,68.0,55.6,61.0,56.2,51.0,85,68,45,29.69,29.57,27,16,40,0.02
2013-9-27,84.0,72.9,65.8,64.8,61.8,20.8,92,70,10,29.67,29.55,25,13,40,0.47
2013-9-28,75.9,63.0,50.9,64.2,54.2,42.6,100,74,53,29.73,29.44,20,11,30,0.04
2013-9-29,80.4,60.7,42.1,48.1,43.5,38.8,89,58,26,29.75,29.56,15,5,25,0.00
2013-9-30,82.8,67.4,52.9,51.5,48.3,45.3,76,52,32,29.57,29.39,12,7,23,0.00
2013-10-1,75.4,66.4,58.3,53.6,44.3,31.4,73,48,21,29.77,29.38,12,7,27,0.00
2013-10-2,77.9,59.9,44.6,53.1,40.0,32.3,93,52,21,29.84,29.62,26,8,38,0.02
2013-10-3,57.6,55.2,53.6,56.1,54.4,53.3,100,97,91,29.76,29.66,7,3,15,0.00
2013-10-4,57.2,54.6,52.0,55.5,53.5,51.7,100,96,90,29.78,29.62,9,6,23,0.09
2013-10-5,58.6,51.9,43.0,58.4,46.6,37.8,100,83,57,29.65,29.56,15,6,27,0.00
2013-10-6,53.1,46.8,40.8,49.4,45.3,40.4,100,95,84,29.67,29.51,14,5,25,0.06
2013-10-7,72.5,55.0,41.2,48.5,40.5,35.5,91,64,28,29.79,29.66,7,3,15,0.06
2013-10-8,80.8,62.2,49.5,48.0,44.6,40.6,82,56,28,29.76,29.56,20,10,41,0.08
2013-10-9,77.4,64.7,52.3,53.1,49.2,46.4,82,59,40,29.81,29.65,15,9,31,0.08
2013-10-10,80.6,63.8,51.1,55.5,49.9,46.3,84,63,39,29.82,29.64,20,12,39,0.00
2013-10-11,69.3,63.4,57.9,61.6,54.4,49.0,99,73,57,29.64,29.36,32,18,36,0.80
2013-10-12,63.1,53.1,50.9,55.4,45.4,43.4,78,75,70,29.57,29.43,17,8,31,0.80
2013-10-13,63.5,52.7,34.7,41.9,34.9,31.2,89,54,32,30.22,29.94,5,2,18,0.00
2013-10-14,50.0,46.5,43.9,44.6,38.4,33.8,94,74,55,30.17,29.77,15,7,30,0.35
2013-10-15,50.0,48.2,44.8,49.7,47.8,44.0,100,98,92,29.78,29.45,27,12,43,0.73
2013-10-16,56.3,46.3,38.1,43.9,39.2,33.2,100,79,45,29.80,29.67,14,6,24,0.73
2013-10-17,49.3,42.8,38.5,47.1,38.1,34.1,100,83,68,29.70,29.62,13,4,27,0.13
2013-10-18,53.8,42.9,31.6,40.5,34.5,27.8,100,75,38,29.81,29.69,10,5,24,0.02
2013-10-19,45.7,38.3,33.8,39.8,33.1,26.9,97,83,57,29.71,29.52,13,5,27,0.02
2013-10-20,45.5,36.5,31.1,39.4,32.1,26.8,90,84,77,29.68,29.42,17,7,25,0.04
2013-10-21,41.5,34.0,29.1,34.5,24.6,20.5,91,69,51,29.79,29.68,12,8,24,0.06
2013-10-22,39.9,32.4,24.6,30.2,25.8,21.3,91,77,63,29.84,29.75,11,4,17,0.00
2013-10-23,37.8,34.4,28.0,29.0,24.2,20.5,92,67,50,29.90,29.82,12,6,22,0.00
2013-10-24,45.0,35.0,26.2,33.5,27.1,18.9,93,74,56,30.10,29.90,13,6,21,0.00
2013-10-25,62.1,39.8,22.8,43.2,31.3,20.6,92,74,49,30.12,29.60,15,6,31,0.00
2013-10-26,52.2,41.8,32.5,42.9,31.4,26.4,84,67,52,29.93,29.63,14,8,29,0.00
2013-10-27,60.4,40.9,28.0,36.9,29.4,23.6,83,66,40,29.89,29.62,9,5,20,0.00
2013-10-28,42.8,36.2,28.0,31.2,24.7,20.0,80,64,43,30.22,29.85,11,7,20,0.00
2013-10-29,37.0,33.7,30.6,32.9,27.7,20.4,91,78,64,30.19,29.89,8,5,17,0.00
2013-10-30,46.8,40.6,35.2,46.5,40.2,33.2,100,98,92,29.90,29.54,7,3,18,0.05
2013-10-31,45.5,39.1,36.3,45.2,38.3,35.7,100,97,90,29.54,29.24,10,5,17,0.02
2013-11-1,50.5,41.8,34.9,40.8,37.6,33.3,100,86,65,29.64,29.25,13,7,24,0.01
2013-11-2,50.9,38.5,31.1,39.0,34.8,30.9,100,87,60,29.88,29.64,9,5,21,0.01
2013-11-3,55.4,44.0,34.3,37.7,33.2,30.9,87,68,41,29.87,29.61,37,18,52,0.57
2013-11-4,48.4,44.9,37.0,42.0,35.9,28.9,88,71,58,29.86,29.57,26,13,40,0.04
2013-11-5,39.2,33.1,27.3,31.9,27.8,23.9,100,82,62,30.04,29.86,5,2,13,0.04
2013-11-6,37.8,30.3,24.1,30.7,26.3,21.1,100,86,65,29.93,29.86,7,4,13,0.08
2013-11-7,39.7,26.7,18.0,30.4,23.4,16.8,100,88,67,30.05,29.93,7,4,14,0.07
2013-11-8,39.6,30.9,21.4,35.1,26.7,20.2,100,85,68,30.00,29.40,25,11,34,0.01
2013-11-9,43.3,39.5,34.3,39.3,33.5,25.8,96,80,59,29.96,29.41,16,11,36,0.02
2013-11-10,36.7,33.8,27.5,31.0,28.0,24.5,90,79,72,30.13,29.92,13,6,27,0.02
2013-11-11,34.9,23.9,15.1,31.4,15.0,7.5,89,69,52,30.45,29.89,18,10,32,0.00
2013-11-12,32.5,17.5,6.3,15.3,8.4,3.1,87,69,38,30.56,30.30,12,5,21,0.00
2013-11-13,54.1,32.7,18.7,36.1,22.8,13.1,83,68,48,30.29,29.69,12,7,23,0.00
2013-11-14,54.9,42.0,34.9,39.8,34.0,30.4,87,74,55,29.69,29.56,11,5,24,0.00
2013-11-15,57.2,40.5,29.1,41.6,33.9,27.9,100,79,50,29.63,29.44,14,5,24,0.00
2013-11-16,47.7,42.4,36.9,47.4,40.6,34.5,100,93,79,29.44,29.05,15,10,24,0.04
2013-11-17,46.0,39.2,32.5,45.8,37.1,26.8,100,93,79,29.58,29.09,18,10,38,0.04
2013-11-18,35.6,30.1,24.8,26.9,22.3,19.3,83,73,57,30.01,29.59,19,11,40,0.02
2013-11-19,48.2,33.2,23.0,34.0,25.4,18.4,85,74,56,30.02,29.63,33,16,42,0.04
2013-11-20,46.2,42.3,34.7,34.9,32.6,30.2,89,68,61,29.75,29.61,24,15,35,0.04
2013-11-21,34.7,26.2,21.4,34.3,21.6,12.2,100,83,63,30.26,29.75,18,11,34,0.00
2013-11-22,36.7,19.9,7.0,14.7,8.4,0.0,87,64,21,30.36,30.23,16,9,29,0.01
2013-11-23,18.5,7.1,1.6,8.1,0.4,-2.5,82,74,58,30.63,30.35,15,10,31,0.01
2013-11-24,39.4,20.3,2.5,17.6,8.5,-3.1,77,61,39,30.52,29.79,18,10,32,0.00
2013-11-25,38.8,32.4,27.1,26.9,23.2,16.5,86,69,57,29.88,29.69,15,10,28,0.00
2013-11-26,33.3,21.5,14.0,23.7,11.0,4.3,76,64,52,30.16,29.88,20,13,36,0.17
2013-11-27,22.3,12.6,1.9,9.3,5.3,-1.2,87,73,55,30.18,29.82,22,8,30,0.17
2013-11-28,25.7,21.3,16.2,15.6,11.2,7.2,73,65,53,30.23,29.82,13,7,23,0.00
2013-11-29,33.8,20.7,11.5,18.5,11.7,5.9,82,69,53,30.26,29.94,23,10,36,0.00
2013-11-30,41.4,27.8,19.8,27.5,21.3,17.7,94,77,57,29.93,29.81,13,6,19,0.00
2013-12-1,35.1,24.2,14.9,26.3,19.8,13.0,95,83,68,29.98,29.75,7,4,13,0.00
2013-12-2,35.8,30.9,25.2,35.2,28.1,21.1,100,89,82,29.75,29.33,17,10,24,0.02
2013-12-3,35.4,33.3,32.7,34.5,33.1,32.5,100,99,95,29.55,29.35,11,3,17,0.02
2013-12-4,32.7,27.4,15.3,32.5,27.1,13.6,100,99,93,29.56,29.31,15,7,34,0.00
2013-12-5,14.9,4.7,-1.7,13.3,0.2,-6.5,93,81,70,30.05,29.45,20,13,37,0.00
2013-12-6,0.3,-5.2,-11.2,-6.0,-11.1,-15.7,80,75,65,30.35,30.05,10,6,18,0.00
2013-12-7,1.9,-8.5,-16.6,-8.3,-14.9,-21.4,79,72,60,30.46,30.32,8,4,14,0.00
2013-12-8,9.9,1.1,-9.9,5.8,-3.0,-14.7,87,82,76,30.33,29.85,14,6,19,0.00
2013-12-9,5.9,-2.2,-9.6,3.2,-7.6,-14.1,88,77,63,29.90,29.76,13,6,25,0.00
2013-12-10,14.5,4.5,-4.9,11.9,-0.9,-10.4,89,78,64,29.91,29.53,18,8,35,0.00
2013-12-11,11.7,2.1,-7.2,7.3,-4.0,-13.7,82,75,71,30.18,29.92,13,9,24,0.00
2013-12-12,21.4,12.1,-4.0,12.0,5.3,-10.2,86,74,61,30.14,29.91,9,4,13,0.00
2013-12-13,12.6,11.3,9.9,8.7,7.5,6.3,86,84,81,29.92,29.88,8,4,14,0.00
2013-12-14,15.6,6.5,0.0,9.2,1.7,-5.4,86,80,73,30.05,29.89,12,7,23,0.66
2013-12-15,7.9,-0.1,-3.1,-3.7,-7.4,-10.0,78,70,58,29.93,29.86,12,5,21,0.06
2013-12-16,20.5,8.3,0.3,16.2,4.0,-5.6,89,82,75,29.89,29.70,14,7,26,0.06
2013-12-17,32.7,25.1,13.6,27.4,19.3,10.0,88,78,68,29.89,29.70,17,11,39,0.06
2013-12-18,39.0,21.8,7.3,29.0,16.4,4.4,91,80,66,29.89,29.43,19,7,24,0.06
2013-12-19,30.7,16.2,11.1,25.1,10.7,4.8,84,79,71,29.86,29.51,14,9,27,0.00
2013-12-20,14.0,10.9,5.7,8.9,6.8,2.5,88,83,71,29.83,29.68,12,6,24,0.00
2013-12-21,17.6,12.5,9.9,13.1,9.1,7.5,91,86,80,29.80,29.64,10,3,17,0.00
2013-12-22,12.6,9.0,5.7,9.0,5.2,-0.8,87,84,73,29.88,29.74,10,7,21,0.00
2013-12-30,1.0,-7.5,-15.0,-4.1,-12.6,-20.3,83,78,73,30.06,29.90,17,6,19,0.02
2013-12-31,-0.2,-7.4,-14.4,-7.8,-13.1,-19.3,83,76,65,30.14,29.98,30,4,30,0.00
2014-1-1,-1.1,-6.9,-12.5,-10.4,-14.8,-19.0,73,68,64,30.23,30.14,8,4,14,0.00
2014-1-2,4.1,-5.8,-13.9,-10.3,-15.2,-52.9,77,65,10,30.26,30.18,6,3,8,0.02